Wind_Speed
4 4 4 3 2 1 1 1 1 1 1 2 2 2 2 2 2 3 3 5 6 7 7 7 8 7 7 7 6 6 7 7 7 7 7 6 5 6 7 8 8 8 7
4 4 4 4 3 2 2 1 0 1 0 1 2 1 1 2 2 3 3 3 4 4 5 5 6 7 7 7 7 8 8 9 8 7 7 7 6 6 7 8 8 8 8
4 4 4 5 4 3 2 2 1 1 1 1 1 1 0 1 2 3 3 3 3 3 3 4 5 6 6 7 8 8 9 8 8 8 7 7 6 6 6 7 7 7 7
5 5 5 5 5 4 3 2 2 2 1 2 1 1 0 0 1 2 3 3 3 2 3 4 4 4 5 6 7 8 8 7 7 7 7 7 7 6 6 7 7 6 7
6 7 6 5 5 5 4 3 2 2 2 2 1 0 0 1 1 1 1 2 2 2 3 3 3 3 4 5 5 6 7 6 7 6 6 7 7 7 6 7 7 7 6
7 7 7 6 6 6 5 4 3 3 3 3 2 1 1 1 2 2 2 2 2 2 2 1 2 2 3 4 5 5 5 5 6 6 6 6 6 7 7 7 7 7 6
7 7 8 7 6 6 5 4 4 4 3 3 3 3 2 1 2 2 2 2 1 2 2 1 1 2 2 3 4 4 4 4 5 5 5 4 4 6 6 6 6 7 6
7 8 8 7 7 6 6 5 4 4 3 3 4 4 4 3 2 1 1 1 1 1 0 1 1 2 2 3 2 3 3 3 3 2 3 2 2 4 5 6 6 6 5
7 8 8 8 7 6 6 5 5 4 4 4 4 4 5 4 3 1 1 0 1 1 1 1 2 1 2 2 2 3 2 2 1 2 1 1 1 3 4 4 5 5 5
7 7 7 7 8 7 6 5 5 5 5 4 4 5 4 4 3 2 2 1 1 1 1 1 1 2 2 1 1 2 1 1 1 0 1 1 1 2 3 3 4 3 3
8 7 7 8 8 7 7 6 6 6 6 5 4 4 5 4 4 3 3 1 1 1 1 2 2 2 2 2 1 1 1 1 0 1 1 1 1 2 2 2 2 3 3
8 8 8 8 8 8 7 7 7 6 6 6 5 4 5 5 5 4 3 3 3 2 2 3 2 2 2 2 2 1 1 0 1 1 1 2 1 1 1 1 2 3 3
9 8 8 8 8 8 7 7 8 8 7 7 7 7 6 5 5 5 5 4 4 4 3 3 3 3 2 2 1 1 2 1 2 2 2 3 2 1 1 2 2 3 4
9 9 9 8 8 8 7 7 8 8 7 6 7 7 6 5 5 5 5 4 4 4 4 3 4 3 2 2 1 2 3 3 3 3 3 3 3 3 2 1 2 3 4
9 9 9 9 8 8 8 7 7 7 7 6 7 6 6 5 4 5 4 4 3 3 3 3 2 2 3 3 3 3 3 4 4 4 3 3 3 3 3 4 3 4 5
10 9 8 8 8 8 8 8 7 7 7 7 6 6 6 6 5 4 4 4 3 2 2 2 2 3 4 4 4 5 5 5 4 4 4 5 5 4 4 4 4 4 5
10 9 8 8 8 7 8 8 8 8 8 8 7 7 6 5 5 4 3 3 2 2 4 4 5 4 5 5 5 5 5 5 4 5 5 6 6 6 6 5 5 5 6
10 10 9 9 8 8 8 8 8 8 9 8 7 7 6 5 5 5 4 4 5 3 4 6 5 5 5 5 5 5 5 5 6 6 6 7 7 7 7 6 6 6 7
11 10 9 9 8 8 8 8 9 8 8 9 8 8 8 8 7 6 6 6 6 6 6 6 6 6 6 6 6 6 6 7 7 7 7 7 7 7 7 7 7 8 8
10 10 9 9 8 8 8 8 8 8 8 8 8 8 8 8 8 8 7 7 6 6 7 7 6 6 6 6 7 7 8 8 8 7 7 8 8 8 8 9 8 9 9
10 10 9 8 8 8 8 8 8 8 8 8 8 8 8 8 8 8 8 7 7 6 7 8 7 8 8 8 7 8 8 8 8 8 8 9 9 9 9 10 9 10 10
10 9 9 8 8 8 8 8 7 8 8 8 9 8 8 8 8 8 8 7 7 7 8 8 8 8 8 8 8 8 8 8 8 9 9 9 9 10 10 10 10 10 11
10 9 9 8 8 8 8 8 7 8 8 8 8 8 8 8 8 8 8 8 8 8 8 8 8 8 8 9 9 9 9 9 9 9 10 10 10 10 11 11 11 11 12
9 9 9 8 8 8 8 7 8 8 8 8 8 8 8 8 8 9 8 8 8 9 9 8 9 10 10 10 10 11 11 11 11 11 11 11 11 12 12 12 12 13 13
9 9 9 9 9 8 8 7 8 8 8 8 8 8 8 9 9 9 9 9 10 10 10 10 10 11 11 11 11 12 12 12 12 12 12 12 12 12 13 13 13 14 14
9 9 9 9 9 9 8 8 8 8 8 9 9 8 9 9 10 10 10 11 11 11 11 11 11 12 12 12 12 12 13 13 13 14 13 14 14 13 14 14 14 15 15
Wind_Direction
56 52 45 44 53 73 105 129 124 138 172 169 174 174 159 170 189 173 185 195 198 198 202 205 211 217 215 218 221 225 228 235 243 242 239 237 239 234 230 232 235 235 241
46 41 40 39 44 49 57 105 111 147 143 186 176 172 158 165 159 153 165 187 188 196 206 216 223 228 226 224 229 232 234 237 238 239 244 243 241 238 236 237 240 242 244
49 40 38 30 34 37 40 58 63 85 94 129 156 122 143 150 159 166 174 183 183 195 214 230 240 244 236 234 237 238 238 241 239 243 244 246 239 237 238 240 242 237 242
45 39 31 27 31 30 30 65 72 74 99 121 138 122 168 171 138 155 176 182 183 195 222 233 236 239 240 244 247 243 240 237 238 238 241 250 245 242 246 243 242 243 245
43 40 35 35 39 37 38 55 54 66 84 97 114 160 265 249 265 250 216 205 204 224 247 249 237 237 239 236 243 251 247 243 244 242 243 245 247 246 249 245 245 247 249
41 36 36 42 42 44 47 53 51 70 84 72 67 39 320 265 236 233 237 235 241 265 275 248 241 237 241 243 252 252 255 257 251 243 237 242 244 240 246 246 251 253 256
40 39 40 42 43 42 44 49 44 59 63 57 50 40 33 352 259 240 230 215 245 275 267 227 261 243 253 269 261 255 255 252 254 247 237 234 240 243 246 251 254 253 260
42 42 42 43 42 40 42 47 38 48 47 51 51 44 48 62 90 162 180 235 279 312 317 339 335 294 276 268 263 251 242 242 255 248 232 223 244 242 241 250 256 262 256
41 39 39 40 38 37 40 44 39 35 35 35 50 53 53 64 80 103 171 145 87 52 19 358 5 299 292 287 255 228 232 251 251 228 203 218 240 228 244 254 254 257 261
34 33 36 34 34 31 32 37 35 33 34 36 48 60 62 65 75 78 88 109 110 60 333 321 22 63 29 56 177 202 216 246 266 211 134 138 225 247 247 251 248 254 263
29 31 35 32 32 29 29 30 34 33 32 28 36 50 61 64 66 73 70 73 97 89 63 63 55 30 33 67 89 156 182 225 57 129 112 129 291 280 251 241 246 262 269
29 30 30 33 34 33 36 34 32 35 35 36 44 47 51 61 62 66 65 58 58 57 61 53 38 42 49 68 76 78 113 29 46 82 38 7 334 298 298 279 284 281 286
32 31 32 33 30 31 36 38 36 39 43 46 56 57 57 55 54 58 55 56 47 47 55 58 53 39 42 54 58 60 57 62 41 24 21 21 4 5 348 303 295 290 285
35 35 34 33 31 31 35 37 39 46 50 50 53 56 55 54 50 47 44 41 40 40 47 50 40 30 51 62 50 41 35 33 22 17 6 4 356 349 335 306 288 295 290
34 35 35 33 32 32 31 33 38 44 49 46 46 46 43 43 40 32 35 32 32 41 42 39 23 20 35 32 32 26 28 21 20 19 12 0 342 328 320 316 303 304 300
30 30 31 31 31 32 33 32 36 42 37 33 34 37 38 33 26 23 21 18 17 21 31 29 20 19 23 20 22 17 12 7 3 356 357 354 348 335 319 315 313 317 311
29 30 30 29 30 31 32 33 36 33 29 28 30 33 34 35 28 24 22 18 28 43 42 31 33 26 17 8 4 3 359 353 350 348 346 344 341 336 331 322 317 317 317
27 32 32 32 33 35 35 32 32 32 34 32 29 29 34 32 31 30 21 15 19 25 15 13 15 9 3 359 357 352 350 348 341 338 334 333 335 337 333 326 320 319 319
27 31 32 35 36 37 38 33 32 36 36 35 33 37 37 34 36 36 26 25 26 19 11 9 12 7 358 350 347 346 343 340 335 332 328 326 326 329 328 324 319 315 314
27 29 30 33 34 34 36 34 31 29 28 28 33 34 31 28 27 29 27 27 22 15 9 4 2 359 355 351 348 345 340 333 327 326 324 320 319 320 320 317 315 313 310
23 24 26 27 27 30 30 30 29 27 25 25 30 31 29 26 24 23 18 16 12 7 1 356 349 348 347 344 343 342 337 334 330 328 324 320 316 315 315 315 312 308 310
15 17 18 18 20 21 20 19 21 21 20 19 19 20 23 22 19 16 15 7 5 1 356 351 346 345 345 342 341 338 334 331 330 328 324 319 316 314 314 313 308 308 307
7 8 10 11 12 16 14 15 12 12 11 13 13 15 15 14 10 5 3 360 358 356 353 349 345 343 338 334 333 334 330 329 327 323 320 319 317 314 313 311 306 305 306
357 358 359 359 0 2 5 8 8 3 3 3 4 4 4 4 0 0 356 354 353 351 350 349 344 337 333 331 328 326 325 326 324 321 319 317 314 313 313 312 309 305 308
351 352 354 353 351 350 351 354 355 352 352 353 352 352 352 353 352 351 352 352 348 347 347 343 338 334 332 329 326 325 323 322 320 319 318 317 315 313 312 311 308 306 307
344 345 344 345 344 343 342 342 343 342 342 339 340 348 350 349 346 345 343 342 339 339 339 337 334 333 331 327 325 323 321 319 318 317 316 315 314 313 311 310 308 306 306
Height
5876 5875 5874 5874 5873 5873 5873 5873 5873 5872 5872 5872 5873 5873 5873 5873 5872 5872 5872 5873 5874 5875 5876 5877 5878 5878 5880 5880 5881 5881 5882 5882 5882 5883 5884 5884 5885 5886 5887 5888 5889 5890 5890
5876 5876 5875 5875 5874 5874 5873 5873 5873 5873 5873 5873 5873 5874 5873 5873 5873 5873 5872 5873 5874 5875 5875 5876 5877 5878 5879 5880 5880 5881 5881 5881 5881 5882 5883 5884 5884 5885 5886 5887 5888 5888 5889
5877 5877 5876 5875 5875 5874 5874 5873 5873 5873 5873 5874 5874 5874 5874 5874 5873 5873 5873 5873 5874 5875 5875 5876 5877 5877 5878 5879 5879 5880 5880 5881 5881 5881 5882 5883 5883 5884 5885 5886 5886 5887 5888
5878 5878 5876 5876 5875 5875 5874 5874 5874 5874 5874 5874 5874 5874 5874 5874 5874 5873 5874 5874 5874 5875 5875 5876 5876 5877 5878 5878 5879 5879 5879 5880 5880 5880 5881 5882 5882 5883 5884 5885 5885 5886 5887
5880 5879 5878 5877 5876 5876 5875 5875 5875 5875 5875 5875 5875 5875 5874 5874 5874 5874 5874 5875 5875 5875 5875 5876 5876 5877 5877 5877 5878 5878 5878 5879 5879 5879 5880 5881 5881 5882 5883 5883 5884 5885 5886
5881 5880 5879 5878 5878 5877 5876 5876 5876 5875 5875 5875 5875 5875 5874 5874 5874 5874 5875 5875 5876 5875 5876 5876 5876 5876 5876 5876 5877 5877 5878 5878 5878 5878 5879 5879 5880 5880 5881 5882 5883 5884 5884
5882 5881 5880 5879 5879 5878 5878 5877 5877 5877 5876 5876 5875 5875 5874 5873 5873 5873 5874 5876 5876 5876 5876 5876 5875 5875 5875 5875 5876 5876 5877 5877 5877 5877 5878 5878 5879 5879 5880 5881 5882 5882 5883
5884 5883 5882 5881 5880 5880 5879 5879 5878 5878 5877 5877 5876 5875 5874 5873 5872 5873 5874 5875 5875 5876 5876 5876 5875 5875 5874 5874 5874 5875 5876 5877 5877 5877 5878 5878 5878 5878 5879 5880 5881 5882 5882
5886 5884 5884 5882 5882 5881 5881 5880 5879 5879 5878 5878 5877 5876 5876 5875 5875 5875 5875 5875 5876 5876 5876 5876 5876 5874 5873 5872 5872 5874 5875 5876 5876 5877 5877 5878 5878 5878 5879 5880 5880 5881 5881
5887 5886 5885 5884 5883 5883 5882 5881 5880 5880 5879 5879 5878 5878 5877 5877 5877 5876 5876 5877 5877 5877 5877 5876 5876 5874 5873 5872 5872 5874 5875 5876 5877 5877 5877 5878 5878 5878 5878 5879 5880 5880 5881
5889 5888 5887 5886 5885 5884 5883 5882 5881 5881 5880 5880 5879 5879 5878 5878 5878 5878 5878 5878 5877 5877 5877 5876 5877 5875 5875 5874 5875 5875 5875 5876 5877 5878 5878 5878 5878 5878 5878 5879 5879 5880 5880
5890 5889 5888 5887 5886 5885 5885 5884 5883 5882 5881 5881 5880 5880 5879 5879 5879 5879 5879 5879 5878 5878 5878 5878 5877 5877 5876 5876 5876 5876 5876 5877 5878 5878 5878 5878 5878 5878 5878 5879 5879 5880 5880
5892 5891 5890 5889 5888 5887 5886 5885 5884 5883 5883 5882 5881 5881 5881 5881 5880 5880 5880 5880 5879 5879 5879 5879 5879 5879 5878 5877 5878 5878 5878 5879 5879 5879 5879 5878 5878 5878 5878 5878 5879 5879 5879
5893 5892 5891 5890 5889 5888 5888 5887 5885 5885 5884 5884 5883 5883 5882 5882 5882 5881 5881 5881 5881 5880 5880 5880 5880 5880 5879 5879 5880 5880 5880 5879 5879 5879 5879 5879 5878 5878 5878 5878 5878 5878 5878
5895 5894 5893 5892 5891 5890 5889 5888 5887 5886 5886 5885 5884 5884 5883 5883 5883 5882 5882 5882 5881 5881 5881 5881 5881 5881 5881 5881 5881 5881 5880 5880 5880 5879 5879 5879 5878 5878 5878 5878 5877 5877 5877
5897 5896 5895 5894 5892 5892 5891 5890 5889 5888 5887 5886 5886 5885 5884 5884 5883 5883 5883 5882 5882 5881 5881 5882 5882 5882 5882 5881 5881 5881 5881 5880 5880 5879 5879 5879 5878 5878 5878 5877 5877 5876 5876
5898 5897 5896 5895 5894 5893 5892 5891 5890 5889 5888 5888 5887 5886 5886 5885 5884 5884 5883 5883 5883 5882 5882 5883 5883 5883 5882 5882 5881 5881 5880 5880 5880 5879 5879 5878 5878 5877 5876 5876 5875 5875 5874
5900 5898 5897 5896 5895 5894 5893 5892 5891 5890 5890 5889 5888 5888 5887 5886 5885 5885 5884 5884 5884 5884 5883 5883 5883 5883 5882 5882 5881 5881 5880 5880 5879 5879 5878 5878 5877 5876 5876 5875 5875 5874 5873
5901 5900 5899 5898 5897 5896 5895 5894 5893 5892 5891 5890 5890 5889 5888 5888 5887 5886 5885 5885 5885 5885 5884 5884 5883 5882 5882 5881 5881 5880 5879 5879 5878 5878 5877 5877 5876 5875 5874 5874 5873 5873 5872
5902 5901 5900 5899 5898 5897 5896 5895 5894 5893 5893 5892 5891 5890 5889 5889 5888 5887 5886 5886 5885 5885 5885 5884 5883 5882 5882 5881 5880 5879 5879 5878 5877 5877 5876 5875 5875 5874 5873 5872 5872 5871 5870
5904 5903 5902 5901 5899 5898 5897 5897 5896 5895 5894 5893 5892 5891 5890 5889 5889 5888 5887 5887 5886 5885 5885 5884 5883 5882 5881 5880 5879 5879 5878 5877 5876 5875 5874 5874 5873 5872 5871 5870 5869 5869 5868
5905 5904 5903 5902 5901 5900 5899 5898 5897 5896 5895 5894 5893 5892 5891 5890 5890 5889 5888 5887 5886 5885 5884 5883 5882 5881 5881 5880 5879 5878 5877 5877 5875 5874 5873 5872 5871 5870 5869 5868 5867 5866 5865
5906 5904 5904 5903 5902 5901 5900 5899 5898 5897 5896 5895 5894 5893 5892 5891 5890 5889 5888 5887 5886 5885 5884 5883 5882 5881 5880 5879 5878 5877 5876 5875 5874 5873 5871 5870 5869 5868 5867 5866 5864 5863 5861
5906 5905 5904 5903 5903 5902 5901 5900 5899 5898 5897 5896 5895 5894 5893 5892 5890 5889 5888 5887 5886 5885 5884 5883 5882 5880 5879 5878 5876 5875 5874 5873 5872 5871 5870 5868 5866 5865 5864 5863 5861 5860 5859
5907 5906 5904 5904 5903 5902 5901 5900 5900 5899 5897 5896 5895 5894 5893 5892 5891 5889 5888 5887 5886 5884 5883 5882 5881 5879 5878 5876 5875 5873 5872 5871 5869 5868 5867 5866 5864 5863 5861 5860 5859 5857 5856
5907 5906 5905 5904 5903 5902 5901 5900 5900 5899 5898 5897 5895 5894 5893 5891 5890 5889 5887 5886 5885 5884 5882 5881 5879 5878 5876 5874 5873 5871 5870 5869 5867 5866 5864 5863 5861 5860 5858 5857 5855 5854 5853